Flag Weather past 2 weeks in San José de Mayo, Uruguay

Now
63 °F

Clear.


Feels Like: 63 °F
Forecast: 57 / 93 °F
Wind: 14 mph from Northeast

Location: Carrasco

Current Time: Nov 29, 2014 at 6:58:26 AM

Latest Report: Nov 29, 2014 at 6:00 AM


Visibility: 10 mi

Pressure: 29.86 "Hg

Humidity: 83%

Dew point: 57 °F

Location of San José de MayoLocation

Historic Weather in San José de Mayo — Graph

°F

San José de Mayo temperature yesterday

Maximum temperature yesterday: 84 °F (at 4:00 PM)
Minimum temperature yesterday: 55 °F (at 7:00 AM)
Average temperature yesterday: 71 °F

Past Weeks' High & Low Weather Summary

 TemperatureHumidityPressure
High88 °F (Nov 15, 4:00 PM)100% (Nov 20, 7:00 AM)30.12 "Hg (Nov 20, 7:00 AM)
Low50 °F (Nov 27, 7:00 AM)24% (Nov 15, 4:00 PM)29.62 "Hg (Nov 22, 4:00 AM)
Average68 °F68%29.91 "Hg
* Reported Nov 14 6:00 AM — Nov 29 6:00 AM, San José de Mayo, Weather by CustomWeather, © 2014

Note: Actual official high and low records may vary slightly from our data, if they occured in-between our weather recording intervals... More about our weather records

Advertising

San José de Mayo weather history for previous 24 hours

 ConditionsComfort  
Time TempWeatherWind HumidityBarometerVisibility
6:00 AM
Nov 29
63 °FClear.14 mph83%29.86 "Hg10 mi
5:00 AM63 °FClear.13 mph83%29.89 "Hg10 mi
4:00 AM64 °FClear.12 mph78%29.89 "Hg10 mi
3:00 AM64 °FClear.14 mph78%29.89 "Hg10 mi
2:00 AM66 °FClear.13 mph73%29.92 "Hg10 mi
1:00 AM68 °FClear.12 mph69%29.95 "Hg10 mi
12:00 AM70 °FClear.12 mph60%29.95 "Hg10 mi
11:00 PM
Nov 28
72 °FClear.13 mph47%29.95 "Hg10 mi
10:00 PM73 °FClear.10 mph47%29.92 "Hg10 mi
9:00 PM75 °FClear.7 mph41%29.92 "Hg10 mi
8:00 PM79 °FSunny.8 mph37%29.92 "Hg10 mi
7:00 PM79 °FSunny.10 mph48%29.92 "Hg10 mi
6:00 PM79 °FSunny.10 mph48%29.92 "Hg10 mi
5:00 PM79 °FSunny.12 mph51%29.95 "Hg10 mi
4:00 PM84 °FSunny.10 mph25%29.98 "Hg10 mi
3:00 PM82 °FSunny.9 mph26%29.98 "Hg10 mi
2:00 PM82 °FSunny.7 mph30%30.01 "Hg10 mi
1:00 PM81 °FSunny.7 mph34%30.01 "Hg10 mi
12:00 PM81 °FSunny.9 mph32%30.04 "Hg10 mi
11:00 AM77 °FSunny.12 mph34%30.04 "Hg10 mi
10:00 AM73 °FSunny.9 mph44%30.07 "Hg10 mi
9:00 AM68 °FSunny.7 mph78%30.04 "Hg10 mi
8:00 AM61 °FSunny.5 mph83%30.01 "Hg10 mi
7:00 AM55 °FSunny.5 mph88%30.01 "Hg10 mi
6:00 AM57 °FClear.6 mph77%30.01 "Hg10 mi
Weather by CustomWeather, © 2014

See weather overviewHow to use our weather pages